User: anonymous   Login
Location: Unspecified
(0.0000°N, 0.0000°E)
Time: 21:46:31
(UTC+00:00)
Language:

FALCON 9 R/B - Orbit

View from above orbital plane
View from above orbital plane
View from above satellite
View from above satellite

Ground track
Ground track

The orbit data is extracted from the following two-line orbital elements,

1 39271U 13055G   20220.45531427  .00008569  00000-0  20470-3 0  9997
2 39271  80.9646 212.1406 0586796  16.9542 345.0361 14.48566247358118
Epoch (UTC): 07 August 2020 10:55:39
Eccentricity: 0.0586796
inclination: 80.9646°
perigee height: 313 km
apogee height: 1147 km
right ascension of ascending node: 212.1406°
argument of perigee: 16.9542°
revolutions per day: 14.48566247
mean anomaly at epoch: 345.0361°
orbit number at epoch: 35811

The dashed part of the orbit path shows where the satellite is in the earth's shadow,  

DLR